owner,sensor,date,latitude,longitude,air_pressure(mBar),qcFlag 
WAVCIS,ioos:station:WAVCIS:CSI09:1,2010-12-01T00:00:00Z,29.1015,-89.9782,1019.15,11111222 
WAVCIS,ioos:station:WAVCIS:CSI09:1,2010-12-01T01:00:00Z,29.1015,-89.9782,1020.55,11111222 
WAVCIS,ioos:station:WAVCIS:CSI09:1,2010-12-01T02:00:00Z,29.1015,-89.9782,1022.26,11111222 
WAVCIS,ioos:station:WAVCIS:CSI09:1,2010-12-01T03:00:00Z,29.1015,-89.9782,1023.08,11111222 
WAVCIS,ioos:station:WAVCIS:CSI09:1,2010-12-01T04:00:00Z,29.1015,-89.9782,1023.78,11111222 
WAVCIS,ioos:station:WAVCIS:CSI09:1,2010-12-01T05:00:00Z,29.1015,-89.9782,1023.99,11111222 
WAVCIS,ioos:station:WAVCIS:CSI09:1,2010-12-01T06:00:00Z,29.1015,-89.9782,1023.96,11111222 
WAVCIS,ioos:station:WAVCIS:CSI09:1,2010-12-01T07:00:00Z,29.1015,-89.9782,1023.84,11111222 
WAVCIS,ioos:station:WAVCIS:CSI09:1,2010-12-01T08:00:00Z,29.1015,-89.9782,1024.48,11111222 
WAVCIS,ioos:station:WAVCIS:CSI09:1,2010-12-01T09:00:00Z,29.1015,-89.9782,1024.86,11111222 
WAVCIS,ioos:station:WAVCIS:CSI09:1,2010-12-01T10:00:00Z,29.1015,-89.9782,1025.28,11111222 
WAVCIS,ioos:station:WAVCIS:CSI09:1,2010-12-01T11:00:00Z,29.1015,-89.9782,1025.34,11111222 
WAVCIS,ioos:station:WAVCIS:CSI09:1,2010-12-01T12:00:00Z,29.1015,-89.9782,1025.66,11111222 
WAVCIS,ioos:station:WAVCIS:CSI09:1,2010-12-01T13:00:00Z,29.1015,-89.9782,1025.92,11111222 
WAVCIS,ioos:station:WAVCIS:CSI09:1,2010-12-01T14:00:00Z,29.1015,-89.9782,1026.82,11111222 
WAVCIS,ioos:station:WAVCIS:CSI09:1,2010-12-01T15:00:00Z,29.1015,-89.9782,1027.4,11111222 
WAVCIS,ioos:station:WAVCIS:CSI09:1,2010-12-01T16:00:00Z,29.1015,-89.9782,1027.69,11111222 
WAVCIS,ioos:station:WAVCIS:CSI09:1,2010-12-01T17:00:00Z,29.1015,-89.9782,1027.29,11111222 
WAVCIS,ioos:station:WAVCIS:CSI09:1,2010-12-01T18:00:00Z,29.1015,-89.9782,1026.47,11111222 
WAVCIS,ioos:station:WAVCIS:CSI09:1,2010-12-01T19:00:00Z,29.1015,-89.9782,1025.33,11111222 
WAVCIS,ioos:station:WAVCIS:CSI09:1,2010-12-01T20:00:00Z,29.1015,-89.9782,1024.65,11111222 
WAVCIS,ioos:station:WAVCIS:CSI09:1,2010-12-01T21:00:00Z,29.1015,-89.9782,1024.42,11111222 
WAVCIS,ioos:station:WAVCIS:CSI09:1,2010-12-01T22:00:00Z,29.1015,-89.9782,1024.25,11111222 
WAVCIS,ioos:station:WAVCIS:CSI09:1,2010-12-01T23:00:00Z,29.1015,-89.9782,1024.32,11111222 
WAVCIS,ioos:station:WAVCIS:CSI09:1,2010-12-02T00:00:00Z,29.1015,-89.9782,1024.56,11111222 
WAVCIS,ioos:station:WAVCIS:CSI09:1,2010-12-02T01:00:00Z,29.1015,-89.9782,1024.91,11111222 
WAVCIS,ioos:station:WAVCIS:CSI09:1,2010-12-02T02:00:00Z,29.1015,-89.9782,1024.94,11111222 
WAVCIS,ioos:station:WAVCIS:CSI09:1,2010-12-02T03:00:00Z,29.1015,-89.9782,1025.04,11111222 
WAVCIS,ioos:station:WAVCIS:CSI09:1,2010-12-02T04:00:00Z,29.1015,-89.9782,1025.31,11111222 
WAVCIS,ioos:station:WAVCIS:CSI09:1,2010-12-02T05:00:00Z,29.1015,-89.9782,1025.15,11111222 
WAVCIS,ioos:station:WAVCIS:CSI09:1,2010-12-02T06:00:00Z,29.1015,-89.9782,1024.9,11111222 
WAVCIS,ioos:station:WAVCIS:CSI09:1,2010-12-02T07:00:00Z,29.1015,-89.9782,1024.79,11111222 
WAVCIS,ioos:station:WAVCIS:CSI09:1,2010-12-02T08:00:00Z,29.1015,-89.9782,1024.77,11111222 
WAVCIS,ioos:station:WAVCIS:CSI09:1,2010-12-02T09:00:00Z,29.1015,-89.9782,1024.73,11111222 
WAVCIS,ioos:station:WAVCIS:CSI09:1,2010-12-02T10:00:00Z,29.1015,-89.9782,1025.01,11111222 
WAVCIS,ioos:station:WAVCIS:CSI09:1,2010-12-02T11:00:00Z,29.1015,-89.9782,1025.12,11111222 
WAVCIS,ioos:station:WAVCIS:CSI09:1,2010-12-02T12:00:00Z,29.1015,-89.9782,1025.44,11111222 
WAVCIS,ioos:station:WAVCIS:CSI09:1,2010-12-02T13:00:00Z,29.1015,-89.9782,1025.81,11111222 
WAVCIS,ioos:station:WAVCIS:CSI09:1,2010-12-02T14:00:00Z,29.1015,-89.9782,1026.31,11111222 
WAVCIS,ioos:station:WAVCIS:CSI09:1,2010-12-02T15:00:00Z,29.1015,-89.9782,1026.81,11111222 
WAVCIS,ioos:station:WAVCIS:CSI09:1,2010-12-02T16:00:00Z,29.1015,-89.9782,1027.14,11111222 
WAVCIS,ioos:station:WAVCIS:CSI09:1,2010-12-02T17:00:00Z,29.1015,-89.9782,1026.91,11111222 
WAVCIS,ioos:station:WAVCIS:CSI09:1,2010-12-02T18:00:00Z,29.1015,-89.9782,1025.92,11111222 
WAVCIS,ioos:station:WAVCIS:CSI09:1,2010-12-02T19:00:00Z,29.1015,-89.9782,1025.14,11111222 
WAVCIS,ioos:station:WAVCIS:CSI09:1,2010-12-02T20:00:00Z,29.1015,-89.9782,1024.24,11111222 
WAVCIS,ioos:station:WAVCIS:CSI09:1,2010-12-02T21:00:00Z,29.1015,-89.9782,1023.89,11111222 
WAVCIS,ioos:station:WAVCIS:CSI09:1,2010-12-02T22:00:00Z,29.1015,-89.9782,1024.13,11111222 
WAVCIS,ioos:station:WAVCIS:CSI09:1,2010-12-02T23:00:00Z,29.1015,-89.9782,1024.26,11111222 
WAVCIS,ioos:station:WAVCIS:CSI09:1,2010-12-03T00:00:00Z,29.1015,-89.9782,1024.14,11111222 
WAVCIS,ioos:station:WAVCIS:CSI09:1,2010-12-03T01:00:00Z,29.1015,-89.9782,1024.06,11111222 
WAVCIS,ioos:station:WAVCIS:CSI09:1,2010-12-03T02:00:00Z,29.1015,-89.9782,1024.06,11111222 
WAVCIS,ioos:station:WAVCIS:CSI09:1,2010-12-03T03:00:00Z,29.1015,-89.9782,1024.14,11111222 
WAVCIS,ioos:station:WAVCIS:CSI09:1,2010-12-03T04:00:00Z,29.1015,-89.9782,1023.97,11111222 
WAVCIS,ioos:station:WAVCIS:CSI09:1,2010-12-03T05:00:00Z,29.1015,-89.9782,1024.03,11111222 
WAVCIS,ioos:station:WAVCIS:CSI09:1,2010-12-03T06:00:00Z,29.1015,-89.9782,1023.58,11111222 
WAVCIS,ioos:station:WAVCIS:CSI09:1,2010-12-03T07:00:00Z,29.1015,-89.9782,1023.16,11111222 
WAVCIS,ioos:station:WAVCIS:CSI09:1,2010-12-03T08:00:00Z,29.1015,-89.9782,1023.09,11111222 
WAVCIS,ioos:station:WAVCIS:CSI09:1,2010-12-03T09:00:00Z,29.1015,-89.9782,1022.86,11111222 
WAVCIS,ioos:station:WAVCIS:CSI09:1,2010-12-03T10:00:00Z,29.1015,-89.9782,1023.06,11111222 
WAVCIS,ioos:station:WAVCIS:CSI09:1,2010-12-03T11:00:00Z,29.1015,-89.9782,1023.04,11111222 
WAVCIS,ioos:station:WAVCIS:CSI09:1,2010-12-03T12:00:00Z,29.1015,-89.9782,1023.28,11111222 
WAVCIS,ioos:station:WAVCIS:CSI09:1,2010-12-03T13:00:00Z,29.1015,-89.9782,1023.41,11111222 
WAVCIS,ioos:station:WAVCIS:CSI09:1,2010-12-03T14:00:00Z,29.1015,-89.9782,1023.66,11111222 
WAVCIS,ioos:station:WAVCIS:CSI09:1,2010-12-03T15:00:00Z,29.1015,-89.9782,1024.26,11111222 
WAVCIS,ioos:station:WAVCIS:CSI09:1,2010-12-03T16:00:00Z,29.1015,-89.9782,1024.63,11111222 
WAVCIS,ioos:station:WAVCIS:CSI09:1,2010-12-03T17:00:00Z,29.1015,-89.9782,1023.98,11111222 
WAVCIS,ioos:station:WAVCIS:CSI09:1,2010-12-03T18:00:00Z,29.1015,-89.9782,1022.97,11111222 
WAVCIS,ioos:station:WAVCIS:CSI09:1,2010-12-03T19:00:00Z,29.1015,-89.9782,1021.97,11111222 
WAVCIS,ioos:station:WAVCIS:CSI09:1,2010-12-03T20:00:00Z,29.1015,-89.9782,1021.25,11111222 
WAVCIS,ioos:station:WAVCIS:CSI09:1,2010-12-03T21:00:00Z,29.1015,-89.9782,1020.94,11111222 
WAVCIS,ioos:station:WAVCIS:CSI09:1,2010-12-03T22:00:00Z,29.1015,-89.9782,1020.74,11111222 
WAVCIS,ioos:station:WAVCIS:CSI09:1,2010-12-03T23:00:00Z,29.1015,-89.9782,1020.65,11111222 
WAVCIS,ioos:station:WAVCIS:CSI09:1,2010-12-04T00:00:00Z,29.1015,-89.9782,1020.81,11111222 
WAVCIS,ioos:station:WAVCIS:CSI09:1,2010-12-04T01:00:00Z,29.1015,-89.9782,1021.07,11111222 
WAVCIS,ioos:station:WAVCIS:CSI09:1,2010-12-04T02:00:00Z,29.1015,-89.9782,1021.04,11111222 
WAVCIS,ioos:station:WAVCIS:CSI09:1,2010-12-04T03:00:00Z,29.1015,-89.9782,1020.9,11111222 
WAVCIS,ioos:station:WAVCIS:CSI09:1,2010-12-04T04:00:00Z,29.1015,-89.9782,1020.67,11111222 
WAVCIS,ioos:station:WAVCIS:CSI09:1,2010-12-04T05:00:00Z,29.1015,-89.9782,1020.54,11111222 
WAVCIS,ioos:station:WAVCIS:CSI09:1,2010-12-04T06:00:00Z,29.1015,-89.9782,1020.02,11111222 
WAVCIS,ioos:station:WAVCIS:CSI09:1,2010-12-04T07:00:00Z,29.1015,-89.9782,1019.22,11111222 
WAVCIS,ioos:station:WAVCIS:CSI09:1,2010-12-04T08:00:00Z,29.1015,-89.9782,1018.91,11111222 
WAVCIS,ioos:station:WAVCIS:CSI09:1,2010-12-04T09:00:00Z,29.1015,-89.9782,1018.59,11111222 
WAVCIS,ioos:station:WAVCIS:CSI09:1,2010-12-04T10:00:00Z,29.1015,-89.9782,1018.29,11111222 
WAVCIS,ioos:station:WAVCIS:CSI09:1,2010-12-04T11:00:00Z,29.1015,-89.9782,1018.4,11111222 
WAVCIS,ioos:station:WAVCIS:CSI09:1,2010-12-04T12:00:00Z,29.1015,-89.9782,1018.39,11111222 
WAVCIS,ioos:station:WAVCIS:CSI09:1,2010-12-04T13:00:00Z,29.1015,-89.9782,1018.6,11111222 
WAVCIS,ioos:station:WAVCIS:CSI09:1,2010-12-04T14:00:00Z,29.1015,-89.9782,1019.21,11111222 
WAVCIS,ioos:station:WAVCIS:CSI09:1,2010-12-04T15:00:00Z,29.1015,-89.9782,1019.86,11111222 
WAVCIS,ioos:station:WAVCIS:CSI09:1,2010-12-04T16:00:00Z,29.1015,-89.9782,1020.04,11111222 
WAVCIS,ioos:station:WAVCIS:CSI09:1,2010-12-04T17:00:00Z,29.1015,-89.9782,1019.64,11111222 
WAVCIS,ioos:station:WAVCIS:CSI09:1,2010-12-04T18:00:00Z,29.1015,-89.9782,1018.64,11111222 
WAVCIS,ioos:station:WAVCIS:CSI09:1,2010-12-04T19:00:00Z,29.1015,-89.9782,1017.46,11111222 
WAVCIS,ioos:station:WAVCIS:CSI09:1,2010-12-04T20:00:00Z,29.1015,-89.9782,1016.66,11111222 
WAVCIS,ioos:station:WAVCIS:CSI09:1,2010-12-04T21:00:00Z,29.1015,-89.9782,1016.67,11111222 
WAVCIS,ioos:station:WAVCIS:CSI09:1,2010-12-04T22:00:00Z,29.1015,-89.9782,1016.67,11111222 
WAVCIS,ioos:station:WAVCIS:CSI09:1,2010-12-04T23:00:00Z,29.1015,-89.9782,1017.16,11111222 
WAVCIS,ioos:station:WAVCIS:CSI09:1,2010-12-05T00:00:00Z,29.1015,-89.9782,1017.35,11111222 
WAVCIS,ioos:station:WAVCIS:CSI09:1,2010-12-05T01:00:00Z,29.1015,-89.9782,1017.18,11111222 
WAVCIS,ioos:station:WAVCIS:CSI09:1,2010-12-05T02:00:00Z,29.1015,-89.9782,1017.13,11111222 
WAVCIS,ioos:station:WAVCIS:CSI09:1,2010-12-05T03:00:00Z,29.1015,-89.9782,1017.62,11111222 
WAVCIS,ioos:station:WAVCIS:CSI09:1,2010-12-05T04:00:00Z,29.1015,-89.9782,1017.92,11111222 
WAVCIS,ioos:station:WAVCIS:CSI09:1,2010-12-05T05:00:00Z,29.1015,-89.9782,1017.81,11111222 
WAVCIS,ioos:station:WAVCIS:CSI09:1,2010-12-05T06:00:00Z,29.1015,-89.9782,1017.5,11111222 
WAVCIS,ioos:station:WAVCIS:CSI09:1,2010-12-05T07:00:00Z,29.1015,-89.9782,1017.33,11111222 
WAVCIS,ioos:station:WAVCIS:CSI09:1,2010-12-05T08:00:00Z,29.1015,-89.9782,1017.58,11111222 
WAVCIS,ioos:station:WAVCIS:CSI09:1,2010-12-05T09:00:00Z,29.1015,-89.9782,1017.6,11111222 
WAVCIS,ioos:station:WAVCIS:CSI09:1,2010-12-05T10:00:00Z,29.1015,-89.9782,1017.72,11111222 
WAVCIS,ioos:station:WAVCIS:CSI09:1,2010-12-05T11:00:00Z,29.1015,-89.9782,1018.33,11111222 
WAVCIS,ioos:station:WAVCIS:CSI09:1,2010-12-05T12:00:00Z,29.1015,-89.9782,1019.13,11111222 
WAVCIS,ioos:station:WAVCIS:CSI09:1,2010-12-05T13:00:00Z,29.1015,-89.9782,1019.76,11111222 
WAVCIS,ioos:station:WAVCIS:CSI09:1,2010-12-05T14:00:00Z,29.1015,-89.9782,1021.11,11111222 
WAVCIS,ioos:station:WAVCIS:CSI09:1,2010-12-05T15:00:00Z,29.1015,-89.9782,1022.1,11111222 
WAVCIS,ioos:station:WAVCIS:CSI09:1,2010-12-05T16:00:00Z,29.1015,-89.9782,1022.79,11111222 
WAVCIS,ioos:station:WAVCIS:CSI09:1,2010-12-05T17:00:00Z,29.1015,-89.9782,1022.6,11111222 
WAVCIS,ioos:station:WAVCIS:CSI09:1,2010-12-05T18:00:00Z,29.1015,-89.9782,1021.85,11111222 
WAVCIS,ioos:station:WAVCIS:CSI09:1,2010-12-05T19:00:00Z,29.1015,-89.9782,1021.26,11111222 
WAVCIS,ioos:station:WAVCIS:CSI09:1,2010-12-05T20:00:00Z,29.1015,-89.9782,1021.31,11111222 
WAVCIS,ioos:station:WAVCIS:CSI09:1,2010-12-05T21:00:00Z,29.1015,-89.9782,1021.61,11111222 
WAVCIS,ioos:station:WAVCIS:CSI09:1,2010-12-05T22:00:00Z,29.1015,-89.9782,1022.01,11111222 
WAVCIS,ioos:station:WAVCIS:CSI09:1,2010-12-05T23:00:00Z,29.1015,-89.9782,1022.36,11111222 
WAVCIS,ioos:station:WAVCIS:CSI09:1,2010-12-06T00:00:00Z,29.1015,-89.9782,1023.14,11111222 
WAVCIS,ioos:station:WAVCIS:CSI09:1,2010-12-06T01:00:00Z,29.1015,-89.9782,1023.82,11111222 
WAVCIS,ioos:station:WAVCIS:CSI09:1,2010-12-06T02:00:00Z,29.1015,-89.9782,1024.42,11111222 
WAVCIS,ioos:station:WAVCIS:CSI09:1,2010-12-06T03:00:00Z,29.1015,-89.9782,1024.73,11111222 
WAVCIS,ioos:station:WAVCIS:CSI09:1,2010-12-06T04:00:00Z,29.1015,-89.9782,1025.43,11111222 
WAVCIS,ioos:station:WAVCIS:CSI09:1,2010-12-06T05:00:00Z,29.1015,-89.9782,1025.66,11111222 
WAVCIS,ioos:station:WAVCIS:CSI09:1,2010-12-06T06:00:00Z,29.1015,-89.9782,1025.36,11111222 
WAVCIS,ioos:station:WAVCIS:CSI09:1,2010-12-06T07:00:00Z,29.1015,-89.9782,1025.24,11111222 
WAVCIS,ioos:station:WAVCIS:CSI09:1,2010-12-06T08:00:00Z,29.1015,-89.9782,1025.44,11111222 
WAVCIS,ioos:station:WAVCIS:CSI09:1,2010-12-06T09:00:00Z,29.1015,-89.9782,1025.75,11111222 
WAVCIS,ioos:station:WAVCIS:CSI09:1,2010-12-06T10:00:00Z,29.1015,-89.9782,1025.86,11111222 
WAVCIS,ioos:station:WAVCIS:CSI09:1,2010-12-06T11:00:00Z,29.1015,-89.9782,1025.82,11111222 
WAVCIS,ioos:station:WAVCIS:CSI09:1,2010-12-06T12:00:00Z,29.1015,-89.9782,1026.65,11111222 
WAVCIS,ioos:station:WAVCIS:CSI09:1,2010-12-06T13:00:00Z,29.1015,-89.9782,1027.01,11111222 
WAVCIS,ioos:station:WAVCIS:CSI09:1,2010-12-06T14:00:00Z,29.1015,-89.9782,1027.46,11111222 
WAVCIS,ioos:station:WAVCIS:CSI09:1,2010-12-06T15:00:00Z,29.1015,-89.9782,1028.07,11111222 
WAVCIS,ioos:station:WAVCIS:CSI09:1,2010-12-06T16:00:00Z,29.1015,-89.9782,1028.44,11111222 
WAVCIS,ioos:station:WAVCIS:CSI09:1,2010-12-06T17:00:00Z,29.1015,-89.9782,1028.01,11111222 
WAVCIS,ioos:station:WAVCIS:CSI09:1,2010-12-06T18:00:00Z,29.1015,-89.9782,1027.03,11111222 
WAVCIS,ioos:station:WAVCIS:CSI09:1,2010-12-06T19:00:00Z,29.1015,-89.9782,1025.92,11111222 
WAVCIS,ioos:station:WAVCIS:CSI09:1,2010-12-06T20:00:00Z,29.1015,-89.9782,1025.11,11111222 
WAVCIS,ioos:station:WAVCIS:CSI09:1,2010-12-06T21:00:00Z,29.1015,-89.9782,1024.51,11111222 
WAVCIS,ioos:station:WAVCIS:CSI09:1,2010-12-06T22:00:00Z,29.1015,-89.9782,1024.33,11111222 
WAVCIS,ioos:station:WAVCIS:CSI09:1,2010-12-06T23:00:00Z,29.1015,-89.9782,1024.05,11111222 
WAVCIS,ioos:station:WAVCIS:CSI09:1,2010-12-07T00:00:00Z,29.1015,-89.9782,1024.18,11111222 
WAVCIS,ioos:station:WAVCIS:CSI09:1,2010-12-07T01:00:00Z,29.1015,-89.9782,1024.35,11111222 
WAVCIS,ioos:station:WAVCIS:CSI09:1,2010-12-07T02:00:00Z,29.1015,-89.9782,1024.43,11111222 
WAVCIS,ioos:station:WAVCIS:CSI09:1,2010-12-07T03:00:00Z,29.1015,-89.9782,1024.42,11111222 
WAVCIS,ioos:station:WAVCIS:CSI09:1,2010-12-07T04:00:00Z,29.1015,-89.9782,1024.39,11111222 
WAVCIS,ioos:station:WAVCIS:CSI09:1,2010-12-07T05:00:00Z,29.1015,-89.9782,1024.43,11111222 
WAVCIS,ioos:station:WAVCIS:CSI09:1,2010-12-07T06:00:00Z,29.1015,-89.9782,1024.07,11111222 
WAVCIS,ioos:station:WAVCIS:CSI09:1,2010-12-07T07:00:00Z,29.1015,-89.9782,1024.18,11111222 
WAVCIS,ioos:station:WAVCIS:CSI09:1,2010-12-07T08:00:00Z,29.1015,-89.9782,1024.03,11111222 
WAVCIS,ioos:station:WAVCIS:CSI09:1,2010-12-07T09:00:00Z,29.1015,-89.9782,1023.62,11111222 
WAVCIS,ioos:station:WAVCIS:CSI09:1,2010-12-07T10:00:00Z,29.1015,-89.9782,1023.28,11111222 
WAVCIS,ioos:station:WAVCIS:CSI09:1,2010-12-07T11:00:00Z,29.1015,-89.9782,1023.11,11111222 
WAVCIS,ioos:station:WAVCIS:CSI09:1,2010-12-07T12:00:00Z,29.1015,-89.9782,1023.3,11111222 
WAVCIS,ioos:station:WAVCIS:CSI09:1,2010-12-07T13:00:00Z,29.1015,-89.9782,1023.8,11111222 
WAVCIS,ioos:station:WAVCIS:CSI09:1,2010-12-07T14:00:00Z,29.1015,-89.9782,1024.41,11111222 
WAVCIS,ioos:station:WAVCIS:CSI09:1,2010-12-07T15:00:00Z,29.1015,-89.9782,1024.87,11111222 
WAVCIS,ioos:station:WAVCIS:CSI09:1,2010-12-07T16:00:00Z,29.1015,-89.9782,1024.92,11111222 
WAVCIS,ioos:station:WAVCIS:CSI09:1,2010-12-07T17:00:00Z,29.1015,-89.9782,1024.42,11111222 
WAVCIS,ioos:station:WAVCIS:CSI09:1,2010-12-07T18:00:00Z,29.1015,-89.9782,1023.21,11111222 
WAVCIS,ioos:station:WAVCIS:CSI09:1,2010-12-07T19:00:00Z,29.1015,-89.9782,1021.94,11111222 
WAVCIS,ioos:station:WAVCIS:CSI09:1,2010-12-07T20:00:00Z,29.1015,-89.9782,1021.11,11111222 
WAVCIS,ioos:station:WAVCIS:CSI09:1,2010-12-07T21:00:00Z,29.1015,-89.9782,1021.02,11111222 
WAVCIS,ioos:station:WAVCIS:CSI09:1,2010-12-07T22:00:00Z,29.1015,-89.9782,1021.15,11111222 
WAVCIS,ioos:station:WAVCIS:CSI09:1,2010-12-07T23:00:00Z,29.1015,-89.9782,1021.36,11111222 
WAVCIS,ioos:station:WAVCIS:CSI09:1,2010-12-08T00:00:00Z,29.1015,-89.9782,1021.13,11111222 
WAVCIS,ioos:station:WAVCIS:CSI09:1,2010-12-08T01:00:00Z,29.1015,-89.9782,1021.12,11111222 
WAVCIS,ioos:station:WAVCIS:CSI09:1,2010-12-08T02:00:00Z,29.1015,-89.9782,1021.56,11111222 
WAVCIS,ioos:station:WAVCIS:CSI09:1,2010-12-08T03:00:00Z,29.1015,-89.9782,1020.98,11111222 
WAVCIS,ioos:station:WAVCIS:CSI09:1,2010-12-08T04:00:00Z,29.1015,-89.9782,1020.81,11111222 
WAVCIS,ioos:station:WAVCIS:CSI09:1,2010-12-08T05:00:00Z,29.1015,-89.9782,1020.89,11111222 
WAVCIS,ioos:station:WAVCIS:CSI09:1,2010-12-08T06:00:00Z,29.1015,-89.9782,1020.83,11111222 
WAVCIS,ioos:station:WAVCIS:CSI09:1,2010-12-08T07:00:00Z,29.1015,-89.9782,1020.8,11111222 
WAVCIS,ioos:station:WAVCIS:CSI09:1,2010-12-08T08:00:00Z,29.1015,-89.9782,1019.76,11111222 
WAVCIS,ioos:station:WAVCIS:CSI09:1,2010-12-08T09:00:00Z,29.1015,-89.9782,1019.5,11111222 
WAVCIS,ioos:station:WAVCIS:CSI09:1,2010-12-08T10:00:00Z,29.1015,-89.9782,1017.94,11111222 
WAVCIS,ioos:station:WAVCIS:CSI09:1,2010-12-08T11:00:00Z,29.1015,-89.9782,1018.62,11111222 
WAVCIS,ioos:station:WAVCIS:CSI09:1,2010-12-08T12:00:00Z,29.1015,-89.9782,1020.79,11111222 
WAVCIS,ioos:station:WAVCIS:CSI09:1,2010-12-08T13:00:00Z,29.1015,-89.9782,1022.31,11111222 
WAVCIS,ioos:station:WAVCIS:CSI09:1,2010-12-08T14:00:00Z,29.1015,-89.9782,1021.5,11111222 
WAVCIS,ioos:station:WAVCIS:CSI09:1,2010-12-08T15:00:00Z,29.1015,-89.9782,1021.56,11111222 
WAVCIS,ioos:station:WAVCIS:CSI09:1,2010-12-08T16:00:00Z,29.1015,-89.9782,1021.6,11111222 
WAVCIS,ioos:station:WAVCIS:CSI09:1,2010-12-08T17:00:00Z,29.1015,-89.9782,1021.09,11111222 
WAVCIS,ioos:station:WAVCIS:CSI09:1,2010-12-08T18:00:00Z,29.1015,-89.9782,1020.48,11111222 
WAVCIS,ioos:station:WAVCIS:CSI09:1,2010-12-08T19:00:00Z,29.1015,-89.9782,1020.03,11111222 
WAVCIS,ioos:station:WAVCIS:CSI09:1,2010-12-08T20:00:00Z,29.1015,-89.9782,1019.96,11111222 
WAVCIS,ioos:station:WAVCIS:CSI09:1,2010-12-08T21:00:00Z,29.1015,-89.9782,1020.39,11111222 
WAVCIS,ioos:station:WAVCIS:CSI09:1,2010-12-08T22:00:00Z,29.1015,-89.9782,1021.03,11111222 
WAVCIS,ioos:station:WAVCIS:CSI09:1,2010-12-08T23:00:00Z,29.1015,-89.9782,1021.43,11111222 
WAVCIS,ioos:station:WAVCIS:CSI09:1,2010-12-09T00:00:00Z,29.1015,-89.9782,1021.8,11111222 
WAVCIS,ioos:station:WAVCIS:CSI09:1,2010-12-09T01:00:00Z,29.1015,-89.9782,1022.32,11111222 
WAVCIS,ioos:station:WAVCIS:CSI09:1,2010-12-09T02:00:00Z,29.1015,-89.9782,1022.8,11111222 
WAVCIS,ioos:station:WAVCIS:CSI09:1,2010-12-09T03:00:00Z,29.1015,-89.9782,1023.25,11111222 
WAVCIS,ioos:station:WAVCIS:CSI09:1,2010-12-09T04:00:00Z,29.1015,-89.9782,1024.02,11111222 
WAVCIS,ioos:station:WAVCIS:CSI09:1,2010-12-09T05:00:00Z,29.1015,-89.9782,1024.15,11111222 
WAVCIS,ioos:station:WAVCIS:CSI09:1,2010-12-09T06:00:00Z,29.1015,-89.9782,1023.94,11111222 
WAVCIS,ioos:station:WAVCIS:CSI09:1,2010-12-09T07:00:00Z,29.1015,-89.9782,1023.87,11111222 
WAVCIS,ioos:station:WAVCIS:CSI09:1,2010-12-09T08:00:00Z,29.1015,-89.9782,1023.79,11111222 
WAVCIS,ioos:station:WAVCIS:CSI09:1,2010-12-09T09:00:00Z,29.1015,-89.9782,1023.91,11111222 
WAVCIS,ioos:station:WAVCIS:CSI09:1,2010-12-09T10:00:00Z,29.1015,-89.9782,1023.87,11111222 
WAVCIS,ioos:station:WAVCIS:CSI09:1,2010-12-09T11:00:00Z,29.1015,-89.9782,1024.42,11111222 
WAVCIS,ioos:station:WAVCIS:CSI09:1,2010-12-09T12:00:00Z,29.1015,-89.9782,1024.67,11111222 
WAVCIS,ioos:station:WAVCIS:CSI09:1,2010-12-09T13:00:00Z,29.1015,-89.9782,1025.12,11111222 
WAVCIS,ioos:station:WAVCIS:CSI09:1,2010-12-09T14:00:00Z,29.1015,-89.9782,1025.61,11111222 
WAVCIS,ioos:station:WAVCIS:CSI09:1,2010-12-09T15:00:00Z,29.1015,-89.9782,1025.68,11111222 
WAVCIS,ioos:station:WAVCIS:CSI09:1,2010-12-09T16:00:00Z,29.1015,-89.9782,1025.78,11111222 
WAVCIS,ioos:station:WAVCIS:CSI09:1,2010-12-09T17:00:00Z,29.1015,-89.9782,1025.96,11111222 
WAVCIS,ioos:station:WAVCIS:CSI09:1,2010-12-09T18:00:00Z,29.1015,-89.9782,1025.07,11111222 
WAVCIS,ioos:station:WAVCIS:CSI09:1,2010-12-09T19:00:00Z,29.1015,-89.9782,1024.43,11111222 
WAVCIS,ioos:station:WAVCIS:CSI09:1,2010-12-09T20:00:00Z,29.1015,-89.9782,1023.49,11111222 
WAVCIS,ioos:station:WAVCIS:CSI09:1,2010-12-09T21:00:00Z,29.1015,-89.9782,1023.51,11111222 
WAVCIS,ioos:station:WAVCIS:CSI09:1,2010-12-09T22:00:00Z,29.1015,-89.9782,1023.29,11111222 
WAVCIS,ioos:station:WAVCIS:CSI09:1,2010-12-09T23:00:00Z,29.1015,-89.9782,1022.93,11111222 
WAVCIS,ioos:station:WAVCIS:CSI09:1,2010-12-10T00:00:00Z,29.1015,-89.9782,1022.91,11111222 
WAVCIS,ioos:station:WAVCIS:CSI09:1,2010-12-10T01:00:00Z,29.1015,-89.9782,1023.0,11111222 
WAVCIS,ioos:station:WAVCIS:CSI09:1,2010-12-10T02:00:00Z,29.1015,-89.9782,1022.97,11111222 
WAVCIS,ioos:station:WAVCIS:CSI09:1,2010-12-10T03:00:00Z,29.1015,-89.9782,1022.71,11111222 
WAVCIS,ioos:station:WAVCIS:CSI09:1,2010-12-10T04:00:00Z,29.1015,-89.9782,1022.66,11111222 
WAVCIS,ioos:station:WAVCIS:CSI09:1,2010-12-10T05:00:00Z,29.1015,-89.9782,1022.42,11111222 
WAVCIS,ioos:station:WAVCIS:CSI09:1,2010-12-10T06:00:00Z,29.1015,-89.9782,1021.45,11111222 
WAVCIS,ioos:station:WAVCIS:CSI09:1,2010-12-10T07:00:00Z,29.1015,-89.9782,1021.2,11111222 
WAVCIS,ioos:station:WAVCIS:CSI09:1,2010-12-10T08:00:00Z,29.1015,-89.9782,1021.48,11111222 
WAVCIS,ioos:station:WAVCIS:CSI09:1,2010-12-10T09:00:00Z,29.1015,-89.9782,1021.43,11111222 
WAVCIS,ioos:station:WAVCIS:CSI09:1,2010-12-10T10:00:00Z,29.1015,-89.9782,1021.36,11111222 
WAVCIS,ioos:station:WAVCIS:CSI09:1,2010-12-10T11:00:00Z,29.1015,-89.9782,1021.19,11111222 
WAVCIS,ioos:station:WAVCIS:CSI09:1,2010-12-10T12:00:00Z,29.1015,-89.9782,1021.6,11111222 
WAVCIS,ioos:station:WAVCIS:CSI09:1,2010-12-10T13:00:00Z,29.1015,-89.9782,1022.2,11111222 
WAVCIS,ioos:station:WAVCIS:CSI09:1,2010-12-10T14:00:00Z,29.1015,-89.9782,1022.28,11111222 
WAVCIS,ioos:station:WAVCIS:CSI09:1,2010-12-10T15:00:00Z,29.1015,-89.9782,1022.65,11111222 
WAVCIS,ioos:station:WAVCIS:CSI09:1,2010-12-10T16:00:00Z,29.1015,-89.9782,1022.77,11111222 
WAVCIS,ioos:station:WAVCIS:CSI09:1,2010-12-10T17:00:00Z,29.1015,-89.9782,1022.34,11111222 
WAVCIS,ioos:station:WAVCIS:CSI09:1,2010-12-10T18:00:00Z,29.1015,-89.9782,1021.36,11111222 
WAVCIS,ioos:station:WAVCIS:CSI09:1,2010-12-10T19:00:00Z,29.1015,-89.9782,1020.17,11111222 
WAVCIS,ioos:station:WAVCIS:CSI09:1,2010-12-10T20:00:00Z,29.1015,-89.9782,1019.57,11111222 
WAVCIS,ioos:station:WAVCIS:CSI09:1,2010-12-10T21:00:00Z,29.1015,-89.9782,1019.27,11111222 
WAVCIS,ioos:station:WAVCIS:CSI09:1,2010-12-10T22:00:00Z,29.1015,-89.9782,1019.45,11111222 
WAVCIS,ioos:station:WAVCIS:CSI09:1,2010-12-10T23:00:00Z,29.1015,-89.9782,1018.79,11111222 
WAVCIS,ioos:station:WAVCIS:CSI09:1,2010-12-11T00:00:00Z,29.1015,-89.9782,1018.96,11111222 
WAVCIS,ioos:station:WAVCIS:CSI09:1,2010-12-11T01:00:00Z,29.1015,-89.9782,1018.97,11111222 
WAVCIS,ioos:station:WAVCIS:CSI09:1,2010-12-11T02:00:00Z,29.1015,-89.9782,1018.97,11111222 
WAVCIS,ioos:station:WAVCIS:CSI09:1,2010-12-11T03:00:00Z,29.1015,-89.9782,1018.78,11111222 
WAVCIS,ioos:station:WAVCIS:CSI09:1,2010-12-11T04:00:00Z,29.1015,-89.9782,1018.56,11111222 
WAVCIS,ioos:station:WAVCIS:CSI09:1,2010-12-11T05:00:00Z,29.1015,-89.9782,1017.63,11111222 
WAVCIS,ioos:station:WAVCIS:CSI09:1,2010-12-11T06:00:00Z,29.1015,-89.9782,1017.29,11111222 
WAVCIS,ioos:station:WAVCIS:CSI09:1,2010-12-11T07:00:00Z,29.1015,-89.9782,1016.81,11111222 
WAVCIS,ioos:station:WAVCIS:CSI09:1,2010-12-11T08:00:00Z,29.1015,-89.9782,1016.29,11111222 
WAVCIS,ioos:station:WAVCIS:CSI09:1,2010-12-11T09:00:00Z,29.1015,-89.9782,1016.27,11111222 
WAVCIS,ioos:station:WAVCIS:CSI09:1,2010-12-11T10:00:00Z,29.1015,-89.9782,1016.1,11111222 
WAVCIS,ioos:station:WAVCIS:CSI09:1,2010-12-11T11:00:00Z,29.1015,-89.9782,1015.73,11111222 
WAVCIS,ioos:station:WAVCIS:CSI09:1,2010-12-11T12:00:00Z,29.1015,-89.9782,1016.08,11111222 
WAVCIS,ioos:station:WAVCIS:CSI09:1,2010-12-11T13:00:00Z,29.1015,-89.9782,1015.95,11111222 
WAVCIS,ioos:station:WAVCIS:CSI09:1,2010-12-11T14:00:00Z,29.1015,-89.9782,1015.59,11111222 
WAVCIS,ioos:station:WAVCIS:CSI09:1,2010-12-11T15:00:00Z,29.1015,-89.9782,1015.86,11111222 
WAVCIS,ioos:station:WAVCIS:CSI09:1,2010-12-11T16:00:00Z,29.1015,-89.9782,1015.86,11111222 
WAVCIS,ioos:station:WAVCIS:CSI09:1,2010-12-11T17:00:00Z,29.1015,-89.9782,1015.06,11111222 
WAVCIS,ioos:station:WAVCIS:CSI09:1,2010-12-11T18:00:00Z,29.1015,-89.9782,1013.75,11111222 
WAVCIS,ioos:station:WAVCIS:CSI09:1,2010-12-11T19:00:00Z,29.1015,-89.9782,1012.62,11111222 
WAVCIS,ioos:station:WAVCIS:CSI09:1,2010-12-11T20:00:00Z,29.1015,-89.9782,1011.45,11111222 
WAVCIS,ioos:station:WAVCIS:CSI09:1,2010-12-11T21:00:00Z,29.1015,-89.9782,1011.35,11111222 
WAVCIS,ioos:station:WAVCIS:CSI09:1,2010-12-11T22:00:00Z,29.1015,-89.9782,1011.2,11111222 